Regional Weather Roundup
Issued by NWS Newport/Morehead, NC

Current Version | Previous Version | Text Only | Print | Product List | Glossary On
Versions: 1 2 3 4 5 6 7 8 9 10 11 12 13 14 15 16 17 18 19 20 21 22 23 24 25 26 27 28 29 30 31 32 33 34 35 36 37 38 39 40 41 42 43 44 45 46 47 48 49 50
133 ASUS42 KMHX 030713 RWRMHX WEATHER ROUNDUP FOR EASTERN NORTH CAROLINA NATIONAL WEATHER SERVICE NEWPORT/MOREHEAD CITY NC 200 AM EST SAT DEC 03 2016 NOTE: "FAIR" INDICATES FEW OR NO CLOUDS BELOW 12,000 FEET WITH NO SIGNIFICANT WEATHER AND/OR OBSTRUCTIONS TO VISIBILITY NCZ015>017-031-032-045>047-102-103-030800- NORTH COAST CITY SKY/WX TMP DP RH WIND PRES REMARKS EDENTON NOT AVBL ELIZABETH CITY CLEAR 42 32 67 N13 30.16R KITTY HAWK PTSUNNY 46 40 80 NW8 30.12R MANTEO PTCLDY 46 37 73 N12G17 30.14R $$ NCZ045>047-081-094-103-104-030800- CENTRAL COAST CITY SKY/WX TMP DP RH WIND PRES REMARKS FRISCO CLEAR 50 36 58 NW13G22 30.12R $$ NCZ095-097-098-100-101-030800- SOUTHERN COAST CITY SKY/WX TMP DP RH WIND PRES REMARKS BEAUFORT CLEAR 45 36 70 N9 30.16R CEDAR ISLAND NOT AVBL JACKSONVILLE PTCLDY 43 36 76 NW7 30.18R PINEY ISLAND SUNNY N/A N/A N/A N15G25 30.14R WILMINGTON CLOUDY 43 37 79 NW6 30.19R $$ NCZ011>013-027>030-043-044-078>080-089-090>093-098-030800- COASTAL PLAIN CITY SKY/WX TMP DP RH WIND PRES REMARKS AHOSKIE PTCLDY 39 31 73 CALM 30.19S CLINTON CLOUDY 41 37 87 CALM 30.20R ELIZABETHTOWN MOCLDY 42 36 79 CALM 30.19R GOLDSBORO MOCLDY 44 32 63 N5 30.17R GREENVILLE PTCLDY 41 34 75 CALM 30.20R HAVELOCK CLEAR 47 35 63 N14 30.18R KENANSVILLE PTCLDY 43 34 70 N5 30.19R KINSTON N/A 41 33 73 CALM 30.19R NEW BERN CLEAR 44 33 65 N7 30.18R RICHLANDS NOT AVBL ROCKY MOUNT PTCLDY 39 33 79 N7 30.19 WASHINGTON PTCLDY 41 32 71 NW5 30.18R WHITEVILLE CLOUDY 41 37 86 CALM 30.19R $$ AMZ130-135-150-152-154-156-158-170-250-252-270-ANZ085-086-088-633-658-670-030800- MARINE OBSERVATIONS STATION/POSITION TIME TEMP WIND PRES WAVE SWELL AIR SEA DIR/SP/G HT/PER HT/PER (UTC) (F) (DEG/KT/KT) (MB) (FT/S) (FT/S) CHESAPEAKE LIGHT NOT AVBL 64 E VA BEACH 0650 49 60 340/ 21/ 29 1018.7 5/ 5 DUCK 0636 47 56 340/ 24/ 27 1019.5 2 E DUCK NOT AVBL OREGON INLET 0636 47 56 320/ 11/ 13 1019.9 13E OREGON INLT 0700 60 N/A 4/ 5 2/ 9 HATTERAS CG 0636 51 61 320/ 22/ 24 1019.6 DIAMOND BUOY 0650 56 74 330/ 23/ 29 1019.2 4/ 4 2/ 8 CAPE LOOKOUT 0700 49 340/ 18/ 21 1020.8 BEAUFORT LAB 0636 47 58 330/ 7/ 12 1019.9 30 SE NEW RVR IN 0608 59 71 310/ 17/ 21 1020.2 30 SE NEW RVR IN NOT AVBL 27 SE WRIGHTSVLE 0608 58 69 310/ 16/ 21 1020.3 5 SE WRIGHTSVLE NOT AVBL 225 S CAPE HAT 0650 65 74 340/ 14/ 17 1018.6 4/ 6 2/ 8 41 SE CHARLESTON 0650 62 74 330/ 14/ 17 1022.2 3/ 9 2/ 9 $$

USA.gov is the U.S. government's official web portal to all federal, state and local government web resources and services.